Strona główna
METAR-TAF:

METAR-TAF

Lotnisko :

Elkhart Municipal Airport

Elkhart, Indiana, Stany Zjednoczone

Szerokość geograficzna: 41-43N, Długość geograficzna: 086-00W, wysokość: 237 m

Aktualna obserwacja pogody

Raport powstał 8 godziny i 35 minut temu, godzina 19:52 UTC
Wiatr 8 kt od północ
Temperatura 18°C
Wilgotność 30%
Ciśnienie 1026 hPa
Widzialność: 16.1 km
bezchmurnie

METAR: KEKM 311952Z 35008KT 10SM CLR 18/00 A3031 RMK AO2

czas: 00:27 (04:27 UTC)


TAF: brakujący

Obserwacja i prognoza pogody dla ponad 4000 lotnisk (raport METAR i TAF).

Dostępne stacje oznaczono żółtymi i czerwonymi punktami na mapie.

Najedź kursorem aby zobaczyć nazwę stacji.

Kliknij aby zobaczyć obserwacje i prognozy pogody.

Aby zmienić mapę: kliknij na zielony przycisk z czarnym krzyżykiem, aby powiększyć; na zielony przycisk z myślnikiem, aby pomniejszyć; na zielone strzałki, aby przejść do map sąsiednich.


METAR-TAF: